{"data":{"norad_id":69039,"intl_designator":"2026-101Q","name":"STARLINK-37612","alt_names":[],"object_type":"PAYLOAD","status":"ACTIVE","operator":null,"country":"US","launch_date":"2026-05-06","launch_site_code":"AFWTR","launch_vehicle":null,"mission":null,"orbit_class":"UNKNOWN","rcs_meters":null,"size_class":null,"mass_kg":null,"dimensions":null,"purposes":["comms"],"wikipedia_slug":null,"has_3d_model":false,"image_url":null,"decayed_at":null,"tle_current":{"epoch":"2026-09-20T00:41:19.398336Z","epoch_age_seconds":64030,"freshness":"FRESH","line1":"1 69039U 26101Q   26263.02869674  .00012916  00000+0  40164-3 0  9994","line2":"2 69039  97.2856 116.4737 0002256  96.0661 264.0838 15.33449335 21103","mean_motion":15.33449335,"eccentricity":0.0002256,"inclination_deg":97.2856,"raan_deg":116.4737,"arg_perigee_deg":96.0661,"mean_anomaly_deg":264.0838,"bstar":0.00040164,"rev_number":2110,"period_min":93.905939187746,"perigee_km":463.98634526085,"apogee_km":467.07420793605,"semimajor_km":6843.6672765984,"source":"CELESTRAK","updated_at":"2026-09-20T09:00:44.060768Z"}}}